This is the latest recevied weather packets stored in our database for station/object DM4WH-13. If no packets are shown the sender has not sent any weather packets the latest 10 day(s).
| Time | Temp. | Humidity | Pressure | Rain* | Wind** | Luminosity | Snow |
|---|---|---|---|---|---|---|---|
| 1777467921 | 12.22° C | 26% | 1030.1 hPa | 0 mm | 0.45 m/s, 37° | - | - |
| 1777467608 | 12.22° C | 26% | 1030 hPa | 0 mm | 1.34 m/s, 72° | - | - |
| 1777467321 | 12.22° C | 27% | 1030 hPa | 0 mm | 0.89 m/s, 48° | - | - |
| 1777467009 | 12.22° C | 27% | 1030.1 hPa | 0 mm | 0.45 m/s, 36° | - | - |
| 1777466721 | 12.22° C | 26% | 1030.1 hPa | 0 mm | 0.89 m/s, 28° | - | - |
| 1777466408 | 12.22° C | 26% | 1030.1 hPa | 0 mm | 0.89 m/s, 17° | - | - |
| 1777466133 | 12.22° C | 26% | 1030 hPa | 0 mm | 0.45 m/s, 54° | - | - |
| 1777465821 | 12.22° C | 27% | 1030.1 hPa | 0 mm | 0.89 m/s, 12° | - | - |
| 1777465508 | 11.11° C | 28% | 1030.1 hPa | 0 mm | 0.45 m/s, 54° | - | - |
| 1777465221 | 11.11° C | 26% | 1030.1 hPa | 0 mm | 0.89 m/s, 38° | - | - |
| 1777464908 | 11.11° C | 27% | 1030.1 hPa | 0 mm | 0.89 m/s, 191° | - | - |
| 1777464620 | 11.11° C | 27% | 1030.1 hPa | 0 mm | 1.34 m/s, 282° | - | - |
| 1777464308 | 12.22° C | 25% | 1030.1 hPa | 0 mm | 0.89 m/s, 54° | - | - |
| 1777464021 | 11.11° C | 26% | 1030.1 hPa | 0 mm | 1.34 m/s, 347° | - | - |
| 1777463708 | 11.11° C | 24% | 1030.2 hPa | 0 mm | 1.34 m/s, 30° | - | - |
| 1777463421 | 12.22° C | 26% | 1030.1 hPa | 0 mm | 1.79 m/s, 42° | - | - |
| 1777463108 | 11.11° C | 25% | 1030 hPa | 0 mm | 0.89 m/s, 21° | - | - |
| 1777462820 | 11.11° C | 28% | 1030.1 hPa | 0 mm | 1.34 m/s, 33° | - | - |
| 1777462508 | 11.11° C | 27% | 1030.1 hPa | 0 mm | 0.89 m/s, 38° | - | - |
| 1777462220 | 11.11° C | 26% | 1030 hPa | 0 mm | 1.34 m/s, 37° | - | - |
| 1777461908 | 11.11° C | 28% | 1030.1 hPa | 0 mm | 0.89 m/s, 12° | - | - |
| 1777461621 | 11.11° C | 26% | 1030.1 hPa | 0 mm | 0.89 m/s, 308° | - | - |
| 1777461307 | 11.11° C | 28% | 1030.1 hPa | 0 mm | 1.34 m/s, 2° | - | - |
| 1777461020 | 11.11° C | 29% | 1030 hPa | 0 mm | 0.45 m/s, 354° | - | - |
| 1777460708 | 11.11° C | 27% | 1030 hPa | 0 mm | 1.34 m/s, 276° | - | - |
* Rain latest hour (hover to see other rain measurements)
** Current wind speed in m/s (hover to see current wind gust speed)